Regional Weather Roundup
Issued by NWS

Home | Current Version | Previous Version | Graphics & Text | Print | Product List | Glossary On
Versions: 1 2 3 4 5 6 7 8 9 10 11 12 13 14 15 16 17 18 19 20 21 22 23 24 25 26 27 28 29 30 31 32 33 34 35 36 37 38 39 40 41 42 43 44 45 46 47 48 49 50
000
ASUS45 KBOI 230810
RWRID

IDAHO REGIONAL WEATHER ROUNDUP
NATIONAL WEATHER SERVICE BOISE ID
200 AM MDT THU MAR 23 2017

NOTE: "FAIR" INDICATES FEW OR NO CLOUDS BELOW 12000 FEET
WITH NO SIGNIFICANT WEATHER AND/OR OBSTRUCTIONS TO VISIBILITY

IDZ012-014-230900-
SOUTHWEST IDAHO


CITY           SKY/WX    TMP DP  RH WIND       PRES   REMARKS
BOISE          MOCLDY    43  38  82 W12       29.91S
CALDWELL       MOCLDY    41  35  79 W13       29.93F
MOUNTAIN HOME  CLOUDY    45  45 100 NW18      29.88R
$$

IDZ016-017-230900-
SOUTHCENTRAL IDAHO


CITY           SKY/WX    TMP DP  RH WIND       PRES   REMARKS
BURLEY         CLOUDY    43  34  70 W10       29.81F
JEROME         CLOUDY    41  37  86 SW9       29.83F
TWIN FALLS     CLOUDY    40  36  86 W16       29.84S WCI  31
$$

IDZ019>023-230900-
SOUTHEAST IDAHO


CITY           SKY/WX    TMP DP  RH WIND       PRES   REMARKS
IDAHO FALLS    CLOUDY    41  37  86 S7        29.81F
POCATELLO      CLOUDY    42  38  85 SW9       29.82F
REXBURG        CLOUDY    39  36  89 E3        29.81S
$$

IDZ006-010-011-018-031-032-230900-
CENTRAL IDAHO MOUNTAINS


CITY           SKY/WX    TMP DP  RH WIND       PRES   REMARKS
MCCALL         CLOUDY    36  26  67 N9        29.92R WCI  29
HAILEY         CLOUDY    36  30  80 NW10      29.83F WCI  28
STANLEY          N/A     28  24  85 CALM      29.90S
SALMON         PTCLDY    39  30  70 CALM      29.86R
CHALLIS        CLOUDY    39  29  67 NE3       29.85S
$$

IDZ002-004-006-007-026-230900-
NORTHERN IDAHO


CITY           SKY/WX    TMP DP  RH WIND       PRES   REMARKS
LEWISTON       CLEAR     40  39  97 CALM      30.01R
LOWELL           N/A     41  39  93 CALM      30.04S
COEUR D`ALENE  CLOUDY    42  39  89 S7        29.95R
MULLAN PASS    FOG       29  29 100 SW8       29.89S VSB 1   WCI  21
$$



USA.gov is the U.S. government's official web portal to all federal, state and local government web resources and services.